Regional Weather Roundup
Issued by NWS Burlington, VT

Home | Current Version | Previous Version | Text Only | Print | Product List | Glossary On
Versions: 1 2 3 4 5 6 7 8 9 10 11 12 13 14 15 16 17 18 19 20 21 22 23 24 25 26 27 28 29 30 31 32 33 34 35 36 37 38 39 40 41 42 43 44 45 46 47 48 49 50
000
ASUS41 KBTV 240330
RWRBTV
VERMONT REGIONAL WEATHER ROUNDUP
NATIONAL WEATHER SERVICE BURLINGTON VT
1100 PM EDT SAT SEP 23 2017

NOTE: "FAIR" INDICATES FEW OR NO CLOUDS BELOW 12,000 FEET WITH NO
SIGNIFICANT WEATHER AND/OR OBSTRUCTIONS TO VISIBILITY.

* THESE REPORTS ARE NOT UNDER NWS QUALITY CONTROL AND/OR DO NOT
  REPORT WEATHER SUCH AS PRECIPITATION AND FOG.

VTZ001>019-240400-
_____VERMONT_____


CITY           SKY/WX    TMP DP  RH WIND       PRES   REMARKS
BURLINGTON     CLEAR     68  64  87 CALM      30.07R
MONTPELIER     CLEAR     61  61 100 S5        30.14R
MORRISVILLE    CLEAR     57  57 100 CALM      30.11R
ST. JOHNSBURY*   N/A     64  63  96 MISG      30.08R
LYNDONVILLE*   FAIR      63  61  92 CALM      30.12S
MIDDLEBURY*    FAIR      63  62  95 CALM      30.08S
RUTLAND*       CLEAR     63  59  87 SE9       30.10S
SPRINGFIELD    CLEAR     62  58  86 CALM      30.09R
HIGHGATE*      FAIR      63  63  98 CALM      30.06R
NEWPORT*       FAIR      62  61  97 SW5       30.10S
BENNINGTON     CLEAR     61  58  90 CALM      30.09S
SUTTON*          N/A     64 N/A N/A MISG        N/A
ISLAND POND*     N/A     55 N/A N/A S2          N/A
GALLUP MILLS*    N/A     59 N/A N/A MISG        N/A
UNION VILLAGE*   N/A     63 N/A N/A MISG        N/A
MT. MANSFIELD*   N/A     64 N/A N/A W18         N/A

_____LAKE CHAMPLAIN_____


CITY           SKY/WX    TMP DP  RH WIND       PRES   REMARKS
BURTON ISLAND*   N/A     72  64  78 SW3         N/A
COLCHESTER RF*   N/A     72  66  83 S7          N/A
DIAMOND ISL*     N/A     68  63  83 SE1         N/A

$$

NYZ007-026>031-035-052-083-087-240400-
_____NORTHERN NEW YORK_____


CITY           SKY/WX    TMP DP  RH WIND       PRES   REMARKS
PLATTSBURGH    CLEAR     63  60  90 VRB3      30.06R
SARANAC LAKE   CLEAR     56  56 100 CALM      30.13S FOG
MASSENA        CLEAR     68  61  78 SW3       30.07R
OGDENSBURG*    FAIR      63  61  91 CALM      30.07R
POTSDAM*       CLEAR     66  66 100 SW3       30.08S
STARK FALLS*     N/A     66 N/A N/A SE6         N/A
WATERTOWN      CLEAR     68  61  78 S5        30.07S
FT DRUM        CLEAR     68  60  75 SE5       30.08S
ALBANY         PTCLDY    66  60  81 CALM      30.08R
GLENS FALLS    CLEAR     61  60  97 CALM      30.07S FOG

$$
NHZ002-005-011-240400-
_____NEW HAMPSHIRE_____


CITY           SKY/WX    TMP DP  RH WIND       PRES   REMARKS
LEBANON        CLEAR     62  59  90 CALM      30.07S
MT WASHINGTON  CLEAR     59  52  77 N8          N/A
PLYMOUTH       FAIR      60  58  94 CALM      30.07S
WHITEFIELD     CLEAR     59  56  89 CALM      30.11R

$$

_____REGIONAL QUEBEC LOCATIONS_____


CITY           SKY/WX    TMP DP  RH WIND       PRES   REMARKS
MONTREAL       CLEAR     73  66  78 SW7       30.02S
QUEBEC CITY    PTCLDY    66  64  94 CALM      30.01S
SHERBROOKE     CLEAR     61  59  94 SE3       30.07R

_____REGIONAL ONTARIO LOCATIONS_____


CITY           SKY/WX    TMP DP  RH WIND       PRES   REMARKS
OTTAWA         CLEAR     70  66  88 S7        30.05R

______KEY______
VSB  - VISIBILITY IN MILES
WCI  - WIND CHILL INDEX
HX   - HEAT INDEX
$$
NNNN




USA.gov is the U.S. government's official web portal to all federal, state and local government web resources and services.